This is the latest recevied weather packets stored in our database for station/object K5NWZ. If no packets are shown the sender has not sent any weather packets the latest 10 day(s).
| Time | Temp. | Humidity | Pressure | Rain* | Wind** | Luminosity | Snow |
|---|---|---|---|---|---|---|---|
| 1787886175 | 23.33° C | 46% | 1029.3 hPa | 0 mm | - | 0 W/m² | - |
| 1787885874 | 23.89° C | 47% | 1029.3 hPa | 0 mm | - | 0 W/m² | - |
| 1787885573 | 23.89° C | 47% | 1029.3 hPa | 0 mm | - | 0 W/m² | - |
| 1787885272 | 23.33° C | 49% | 1029.1 hPa | 0 mm | - | 0 W/m² | - |
| 1787884967 | 23.89° C | 48% | 1029 hPa | 0 mm | - | 0 W/m² | - |
| 1787884661 | 23.89° C | 46% | 1029 hPa | 0 mm | - | 0 W/m² | - |
| 1787884357 | 24.44° C | 45% | 1029 hPa | 0 mm | - | 0 W/m² | - |
| 1787884051 | 25° C | 47% | 1029.1 hPa | 0 mm | - | 0 W/m² | - |
| 1787883747 | 25° C | 44% | 1028.9 hPa | 0 mm | - | 0 W/m² | - |
| 1787883443 | 25.56° C | 38% | 1028.9 hPa | 0 mm | - | 0 W/m² | - |
| 1787883141 | 26.11° C | 37% | 1028.7 hPa | 0 mm | - | 0 W/m² | - |
| 1787882837 | 26.11° C | 36% | 1028.7 hPa | 0 mm | - | 0 W/m² | - |
| 1787882534 | 26.67° C | 36% | 1028.8 hPa | 0 mm | - | 0 W/m² | - |
| 1787882229 | 26.67° C | 35% | 1028.7 hPa | 0 mm | - | 0 W/m² | - |
| 1787881929 | 27.22° C | 34% | 1028.8 hPa | 0 mm | - | 1 W/m² | - |
| 1787881624 | 27.22° C | 34% | 1028.9 hPa | 0 mm | - | 1 W/m² | - |
| 1787881320 | 27.78° C | 33% | 1028.6 hPa | 0 mm | - | 2 W/m² | - |
| 1787881015 | 27.78° C | 32% | 1028.7 hPa | 0 mm | - | 4 W/m² | - |
| 1787880709 | 28.33° C | 31% | 1028.4 hPa | 0 mm | - | 6 W/m² | - |
| 1787880408 | 28.33° C | 31% | 1028.6 hPa | 0 mm | - | 9 W/m² | - |
| 1787880103 | 28.89° C | 32% | 1028.3 hPa | 0 mm | - | 13 W/m² | - |
| 1787879797 | 28.89° C | 31% | 1028.6 hPa | 0 mm | - | 17 W/m² | - |
| 1787879493 | 28.89° C | 31% | 1028.6 hPa | 0 mm | - | 21 W/m² | - |
| 1787879188 | 29.44° C | 30% | 1028.2 hPa | 0 mm | - | 27 W/m² | - |
| 1787878886 | 30° C | 30% | 1028.4 hPa | 0 mm | - | 35 W/m² | - |
* Rain latest hour (hover to see other rain measurements)
** Current wind speed in m/s (hover to see current wind gust speed)